Altoona, PA

1:23 AM EST on December 15, 2019 (GMT -0500)
Altoona-Blair County

Weather History for KAOO - May, 2019

Change the Weather History Date:

Tuesday, May 28, 2019

  Actual Average Record
Temperature  
Mean Temperature 72 °F 62 °F  
Max Temperature 84 °F 72 °F 88 °F (2016)
Min Temperature 60 °F 51 °F 35 °F (1992)
Degree Days  
Heating Degree Days 0 5  
Month to date heating degree days 116 228  
Since 1 July heating degree days 5670 6146  
Cooling Degree Days 7 2  
Month to date cooling degree days 54 20  
Year to date cooling degree days 54 26  
Growing Degree Days 22 (Base 50)    
Moisture  
Dew Point 63 °F    
Average Humidity 73    
Maximum Humidity 87    
Minimum Humidity 58    
Precipitation  
Precipitation 1.59 in 0.12 in 1.80 in (2009)
Month to date precipitation 6.14 3.35  
Year to date precipitation 18.95 13.82  
Sea Level Pressure  
Sea Level Pressure 29.80 in    
Wind  
Wind Speed 14 mph (WSW)    
Max Wind Speed 26 mph    
Max Gust Speed 50 mph    
Visibility 7 miles    
Events Rain , Thunderstorm    
T = Trace of Precipitation, MM = Missing Value Source: NWS Daily Summary

Daily Weather History Graph

Daily Weather History Graph

Search for Another Location

Airport or City:

Astronomy

May. 28, 2019 Rise Set
Actual Time 5:47 AM EDT 8:33 PM EDT
Civil Twilight 5:15 AM EDT 9:05 PM EDT
Nautical Twilight 4:35 AM EDT 9:46 PM EDT
Astronomical Twilight 3:49 AM EDT 10:32 PM EDT
Moon 2:59 AM EDT (5/28) 2:41 PM EDT (5/28)
Length of Visible Light 15h 50m
Length of Day
14h 46m
Waning Crescent, 32% of the Moon is Illuminated
May 28
Waning Crescent
Jun 3
New
Jun 10
First Quarter
Jun 17
Full
Jun 25
Last Quarter

Hourly Weather History & Observations

Time (EDT) Temp. Heat Index Dew Point Humidity Pressure Visibility Wind Dir Wind Speed Gust Speed Precip Events Conditions
12:53 AM 62.1 °F - 53.1 °F 72% 29.91 in 10.0 mi Calm Calm - N/A   Partly Cloudy
1:53 AM 61.0 °F - 55.0 °F 81% 29.90 in 10.0 mi Calm Calm - N/A   Overcast
2:53 AM 63.0 °F - 55.9 °F 78% 29.87 in 10.0 mi Calm Calm - N/A   Overcast
3:53 AM 63.0 °F - 55.0 °F 75% 29.85 in 10.0 mi Calm Calm - N/A   Partly Cloudy
4:53 AM 62.1 °F - 57.0 °F 84% 29.85 in 4.0 mi SSW 10.4 mph - 0.05 in Rain Rain
5:53 AM 63.0 °F - 59.0 °F 87% 29.82 in 10.0 mi South 10.4 mph - 0.01 in   Overcast
6:53 AM 64.0 °F - 61.0 °F 90% 29.81 in 10.0 mi West 4.6 mph - N/A   Scattered Clouds
7:53 AM 68.0 °F - 62.1 °F 81% 29.81 in 10.0 mi SW 12.7 mph - N/A   Scattered Clouds
8:34 AM 68.0 °F - 62.1 °F 81% 29.84 in 8.0 mi SSW 17.3 mph - 0.01 in Rain , Thunderstorm Light Rain
8:49 AM 66.2 °F - 62.6 °F 88% 29.83 in 3.0 mi SSW 13.8 mph - 0.03 in Rain Light Rain
8:53 AM 66.0 °F - 63.0 °F 90% 29.81 in 6.0 mi SSW 12.7 mph - 0.03 in Rain Light Rain
9:53 AM 70.0 °F - 64.9 °F 84% 29.79 in 10.0 mi SSW 9.2 mph - 0.00 in   Mostly Cloudy
10:30 AM 73.9 °F - 66.0 °F 76% 29.80 in 10.0 mi SW 16.1 mph 21.9 mph N/A   Mostly Cloudy
10:53 AM 75.9 °F - 66.9 °F 74% 29.77 in 10.0 mi SW 12.7 mph - N/A   Mostly Cloudy
11:46 AM 75.9 °F - 66.0 °F 71% 29.80 in 10.0 mi West 15.0 mph 20.7 mph N/A   Overcast
11:53 AM 75.9 °F - 66.0 °F 71% 29.77 in 10.0 mi West 11.5 mph - 0.00 in Rain Light Rain
12:53 PM 80.1 °F 82.7 °F 68.0 °F 67% 29.75 in 10.0 mi West 17.3 mph 24.2 mph 0.01 in   Scattered Clouds
1:53 PM 81.0 °F 83.0 °F 66.0 °F 60% 29.74 in 10.0 mi West 17.3 mph 26.5 mph N/A   Scattered Clouds
2:53 PM 82.9 °F 85.0 °F 66.0 °F 56% 29.72 in 10.0 mi West 16.1 mph - N/A   Scattered Clouds
3:53 PM 81.0 °F 82.7 °F 64.9 °F 58% 29.72 in 10.0 mi West 16.1 mph 26.5 mph 0.00 in   Partly Cloudy
4:40 PM 78.1 °F - 64.9 °F 64% 29.76 in 9.0 mi West 16.1 mph - 0.00 in Rain , Thunderstorm Light Thunderstorms and Rain
4:50 PM 75.2 °F - 66.2 °F 73% 29.79 in 1.5 mi WNW 19.6 mph 26.5 mph 0.12 in Rain , Thunderstorm Heavy Thunderstorms and Rain
4:53 PM 72.0 °F - 64.9 °F 78% 29.77 in 0.8 mi SW 19.6 mph 49.5 mph 0.22 in Rain , Thunderstorm Heavy Thunderstorms and Rain
5:04 PM 69.1 °F - 61.0 °F 75% 29.78 in 2.5 mi NW 8.1 mph 31.1 mph 0.06 in Rain , Thunderstorm Light Thunderstorms and Rain
5:11 PM 68.0 °F - 63.0 °F 84% 29.76 in 10.0 mi North 4.6 mph - 0.06 in Thunderstorm Thunderstorm
5:22 PM 70.0 °F - 63.0 °F 78% 29.74 in 10.0 mi SSE 5.8 mph - 0.06 in Thunderstorm Scattered Clouds
5:29 PM 69.1 °F - 64.0 °F 84% 29.76 in 10.0 mi NE 3.5 mph - 0.06 in   Partly Cloudy
5:37 PM 69.1 °F - 64.0 °F 84% 29.74 in 10.0 mi South 6.9 mph - 0.06 in Thunderstorm Partly Cloudy
5:53 PM 69.1 °F - 64.0 °F 84% 29.74 in 10.0 mi Variable 5.8 mph - 0.06 in Thunderstorm Scattered Clouds
6:08 PM 70.0 °F - 64.9 °F 84% 29.77 in 10.0 mi NNE 13.8 mph 18.4 mph 0.00 in Thunderstorm Thunderstorm
6:18 PM 72.0 °F - 64.0 °F 76% 29.76 in 2.0 mi Variable 4.6 mph 19.6 mph 0.06 in Rain , Thunderstorm Light Thunderstorms and Rain
6:28 PM 70.0 °F - 66.0 °F 87% 29.77 in 7.0 mi Variable 3.5 mph - 0.07 in Rain , Thunderstorm Light Thunderstorms and Rain
6:37 PM 69.1 °F - 64.9 °F 87% 29.79 in 1.8 mi WSW 10.4 mph - 0.13 in Rain , Thunderstorm Thunderstorms and Rain
6:53 PM 68.0 °F - 63.0 °F 84% 29.76 in 2.5 mi West 8.1 mph - 0.24 in Rain , Thunderstorm Light Rain
7:00 PM 66.9 °F - 62.1 °F 84% 29.78 in 10.0 mi West 3.5 mph - 0.00 in Rain , Thunderstorm Light Rain
7:12 PM 66.9 °F - 62.1 °F 84% 29.77 in 10.0 mi Calm Calm - 0.00 in   Scattered Clouds
7:30 PM 68.0 °F - 63.0 °F 84% 29.79 in 10.0 mi NW 5.8 mph 17.3 mph 0.00 in Thunderstorm Mostly Cloudy
7:48 PM 66.2 °F - 62.6 °F 88% 29.83 in 2.5 mi NW 17.3 mph 33.4 mph 0.11 in Rain , Thunderstorm Heavy Thunderstorms and Rain
7:53 PM 64.9 °F - 61.0 °F 87% 29.81 in 1.5 mi WNW 9.2 mph 31.1 mph 0.23 in Rain , Thunderstorm Heavy Thunderstorms and Rain
8:01 PM 64.9 °F - 62.1 °F 90% 29.83 in 3.0 mi SW 8.1 mph - 0.00 in Rain , Thunderstorm Light Thunderstorms and Rain
8:16 PM 64.0 °F - - N/A% 29.82 in 4.0 mi Variable 4.6 mph - 0.03 in Rain , Thunderstorm Rain
8:53 PM 66.0 °F - - N/A% 29.79 in 10.0 mi West 4.6 mph - 0.05 in Rain , Thunderstorm Light Rain
9:00 PM 66.0 °F - - N/A% 29.80 in 10.0 mi West 4.6 mph - 0.00 in   Mostly Cloudy
9:53 PM 64.9 °F - - N/A% 29.78 in 10.0 mi WSW 3.5 mph - 0.00 in   Clear
10:13 PM 64.9 °F - - N/A% 29.84 in 10.0 mi NNW 9.2 mph - 0.00 in Rain , Thunderstorm Light Rain
10:25 PM 66.9 °F - - N/A% 29.85 in 6.0 mi WNW 11.5 mph 19.6 mph 0.02 in Rain , Thunderstorm Light Thunderstorms and Rain
10:30 PM 64.0 °F - - N/A% 29.86 in 1.5 mi West 13.8 mph 19.6 mph 0.17 in Rain , Thunderstorm Heavy Thunderstorms and Rain
10:42 PM 64.0 °F - - N/A% 29.82 in 2.5 mi NW 5.8 mph - 0.37 in Rain , Thunderstorm Light Thunderstorms and Rain
10:49 PM 64.4 °F - - N/A% 29.82 in 10.0 mi North 3.5 mph - 0.37 in Thunderstorm Thunderstorm
10:53 PM 64.0 °F - - N/A% 29.80 in 10.0 mi Calm Calm - 0.37 in Rain Light Rain
11:02 PM 64.0 °F - - N/A% 29.84 in 10.0 mi SW 5.8 mph - 0.01 in Rain , Thunderstorm Light Rain
11:11 PM 64.0 °F - - N/A% 29.88 in 4.0 mi SW 15.0 mph 20.7 mph 0.06 in Rain , Thunderstorm Heavy Thunderstorms and Rain
11:14 PM 64.0 °F - - N/A% 29.85 in 1.8 mi SSW 15.0 mph 20.7 mph 0.15 in Rain , Thunderstorm Heavy Thunderstorms and Rain
11:24 PM 64.0 °F - - N/A% 29.82 in 3.0 mi SE 4.6 mph - 0.20 in Rain , Thunderstorm Light Thunderstorms and Rain
11:42 PM 64.9 °F - - N/A% 29.84 in 2.5 mi WNW 3.5 mph - 0.25 in Rain , Thunderstorm Rain
11:53 PM 64.0 °F - - N/A% 29.77 in 3.0 mi South 11.5 mph - 0.30 in Rain Rain